SCP
0 0 -0 -0 0 0 0 0 -0 -0 0 0 -0 -0 -0 -0 0 -0 -0 -0 -0 0
0 0 0 0 0 0 0 0 -0 -0 -0 0 -0 -0 -0 -0 0 0 0 0 0 0
0 -0 -0 0 0 0 0 0 0 -0 -0 -0 -0 -0 -0 -0 -0 -0 -0 -0 0 -0
0 -0 -0 -0 0 0 0 0 -0 -0 0 -0 -0 0 -0 -0 -0 -0 -0 -0 -0 -0
0 0 0 -0 0 0 0 0 0 -0 0 0 0 0 0 0 -0 -0 -0 -0 -0 -0
0 0 0 0 0 0 0 0 0 0 0 0 0 0 0 0 0 0 0 0 0 0
0 0 0 0 0 1 1 1 0 0 0 1 0 0 0 0 1 0 0 0 0 0
1 0 0 1 1 1 1 1 1 0 0 1 1 0 0 0 0 0 1 0 0 0
2 1 1 1 1 1 1 2 1 1 1 1 1 0 0 0 1 1 1 1 1 1
4 3 2 2 2 2 2 2 2 1 1 1 1 0 0 0 0 1 1 1 1 1
2 3 3 2 2 1 1 2 1 2 2 1 1 0 0 0 0 0 0 1 1 0
1 1 1 1 2 2 2 2 2 1 1 1 1 0 0 0 0 0 0 0 0 0
1 1 0 1 1 1 1 0 0 0 0 0 0 0 0 0 0 0 0 0 0 0
1 0 0 0 0 0 0 0 0 0 0 0 0 0 0 0 0 0 0 0 0 0
Wind_Speed_500mb
40 35 27 19 18 13 10 14 9 11 9 10 11 10 15 18 19 22 22 21 17 19
36 34 25 20 23 16 21 14 33 21 16 18 21 13 14 17 14 18 18 16 21 22
36 35 35 29 20 13 20 32 11 11 16 19 22 18 22 18 19 26 30 14 26 20
35 36 33 33 22 25 23 16 14 27 23 18 18 20 20 23 22 30 28 21 19 28
36 33 31 25 25 24 23 18 20 25 25 21 15 17 25 26 21 29 28 20 20 22
36 34 34 36 27 26 27 24 27 24 28 21 20 19 20 24 26 23 24 27 24 25
38 34 36 39 34 27 30 32 30 26 26 30 27 26 24 24 26 25 25 31 28 30
36 37 35 33 31 26 26 28 27 25 26 33 33 28 25 29 27 26 30 31 30 32
40 40 39 40 36 36 35 33 35 35 35 39 38 34 33 30 33 40 46 39 32 33
40 44 47 47 45 47 48 45 46 41 43 44 42 41 39 35 37 43 44 39 35 34
51 49 46 48 46 43 43 45 45 45 49 50 48 46 43 53 55 42 40 37 39 38
30 34 52 48 43 40 39 38 37 35 37 43 48 52 55 52 52 45 40 43 41 38
26 29 23 22 18 28 35 36 35 37 40 42 43 47 48 48 43 46 48 47 45 42
18 21 22 17 18 24 25 25 23 24 24 26 30 33 31 35 33 33 41 42 42 40
Wind_Direction_500mb
213 212 218 220 211 243 231 287 192 185 280 289 279 293 308 337 337 317 326 297 313 325
219 205 206 224 223 225 256 281 259 264 268 296 293 284 286 285 287 278 301 302 311 311
229 221 208 221 223 210 206 257 298 289 256 274 294 283 275 266 270 286 289 266 287 288
223 226 229 224 216 239 227 257 256 274 273 277 274 294 291 295 272 270 283 292 289 304
217 217 228 235 239 240 266 239 247 264 285 284 260 274 293 296 293 278 279 274 275 281
205 214 216 233 250 234 245 245 251 262 283 287 279 266 277 285 290 290 290 275 274 284
202 208 215 222 225 226 242 251 256 259 267 283 284 273 275 284 293 296 285 280 267 266
208 204 209 218 236 237 233 244 251 250 250 261 270 272 270 279 286 292 295 295 268 267
212 213 210 213 223 228 241 251 251 257 258 264 266 255 254 250 256 262 277 288 288 282
200 216 221 227 232 235 238 250 263 265 270 270 269 263 259 256 267 273 274 272 273 280
219 228 233 237 243 247 251 251 256 257 259 262 262 264 258 267 279 273 270 262 263 271
222 231 235 245 250 252 256 256 263 269 269 264 264 264 268 271 278 266 260 262 269 280
230 228 234 226 241 260 264 261 263 263 262 263 260 269 275 276 269 261 257 263 272 281
196 202 211 230 252 263 265 270 271 269 266 274 281 280 278 282 265 256 252 264 267 273
Wind_Speed_850mb
40 35 27 19 18 13 10 14 9 11 9 10 11 10 15 18 19 22 22 21 17 19
36 34 25 20 23 16 21 14 33 21 16 18 21 13 14 17 14 18 18 16 21 22
36 35 35 29 20 13 20 32 11 11 16 19 22 18 22 18 19 26 30 14 26 20
35 36 33 33 22 25 23 16 14 27 23 18 18 20 20 23 22 30 28 21 19 28
36 33 31 25 25 24 23 18 20 25 25 21 15 17 25 26 21 29 28 20 20 22
36 34 34 36 27 26 27 24 27 24 28 21 20 19 20 24 26 23 24 27 24 25
38 34 36 39 34 27 30 32 30 26 26 30 27 26 24 24 26 25 25 31 28 30
36 37 35 33 31 26 26 28 27 25 26 33 33 28 25 29 27 26 30 31 30 32
40 40 39 40 36 36 35 33 35 35 35 39 38 34 33 30 33 40 46 39 32 33
40 44 47 47 45 47 48 45 46 41 43 44 42 41 39 35 37 43 44 39 35 34
51 49 46 48 46 43 43 45 45 45 49 50 48 46 43 53 55 42 40 37 39 38
30 34 52 48 43 40 39 38 37 35 37 43 48 52 55 52 52 45 40 43 41 38
26 29 23 22 18 28 35 36 35 37 40 42 43 47 48 48 43 46 48 47 45 42
18 21 22 17 18 24 25 25 23 24 24 26 30 33 31 35 33 33 41 42 42 40
Wind_Direction_850mb
213 212 218 220 211 243 231 287 192 185 280 289 279 293 308 337 337 317 326 297 313 325
219 205 206 224 223 225 256 281 259 264 268 296 293 284 286 285 287 278 301 302 311 311
229 221 208 221 223 210 206 257 298 289 256 274 294 283 275 266 270 286 289 266 287 288
223 226 229 224 216 239 227 257 256 274 273 277 274 294 291 295 272 270 283 292 289 304
217 217 228 235 239 240 266 239 247 264 285 284 260 274 293 296 293 278 279 274 275 281
205 214 216 233 250 234 245 245 251 262 283 287 279 266 277 285 290 290 290 275 274 284
202 208 215 222 225 226 242 251 256 259 267 283 284 273 275 284 293 296 285 280 267 266
208 204 209 218 236 237 233 244 251 250 250 261 270 272 270 279 286 292 295 295 268 267
212 213 210 213 223 228 241 251 251 257 258 264 266 255 254 250 256 262 277 288 288 282
200 216 221 227 232 235 238 250 263 265 270 270 269 263 259 256 267 273 274 272 273 280
219 228 233 237 243 247 251 251 256 257 259 262 262 264 258 267 279 273 270 262 263 271
222 231 235 245 250 252 256 256 263 269 269 264 264 264 268 271 278 266 260 262 269 280
230 228 234 226 241 260 264 261 263 263 262 263 260 269 275 276 269 261 257 263 272 281
196 202 211 230 252 263 265 270 271 269 266 274 281 280 278 282 265 256 252 264 267 273